Location: Cerroniocc
(13.7547°S, 72.0222°W)
Time: 10:27:02
(UTC+00:00)

Cosmos 2297 Rocket - Pass Details

Date: 05 July 2020
Orbit: 839 x 844 km, 71.0° (Epoch: 10 August)

Event Time Altitude Azimuth Distance (km) Brightness Sun altitude
Rises 23:11:26 0° 14° (NNE) 3,380 5.4 -9.4°
Reaches altitude 10° 23:14:25 10° 29° (NNE) 2,452 4.5 -10.1°
Maximum altitude 23:18:37 22° 77° (ENE) 1,776 3.4 -11.1°
Enters shadow 23:21:26 15° 114° (ESE) 2,114 3.6 -11.7°
